Погода в Шаньтоу

Китай     23°27′21″N   116°46′26″E
темп.,
°C
ветер,
м/с
пор.,
м/с
влажн.,
%
обл.,
%
осадки,
мм/ч
давл.,
гПа
погр.,
м
17 мая, пн
пн1723:00+28ююз378138 0.0 1009517
02:00+27юз3685100 0.0 1009415
05:00+26зюз2487100 0.0 1009253
08:00+29зюз247288 0.0 1011618
11:00+34зюз35487 0.0 10101520
14:00+35ю66487 0.0 10071444
17:00+34ююз794974 0.0 10061390
20:00+30ююз586896 0.0 1008458
18 мая, вт
вт1823:00+28ююз3777100 0.4 1010384
02:00+28юз2579100 0.5 1009325
05:00+27ююз118299 1.0 100979
08:00+28ююв0179100 4.4 101196
11:00+28в4480100 3.1 1012626
14:00+26в3587100 3.6 1010354
17:00+27в3382100 0.1 1010444
20:00+26в238794 0.1 1011260
19 мая, ср
ср1923:00+26в228882 0.0 1011192
02:00+25св129112 0.0 1010132
05:00+25всв249129 0.0 1010227
08:00+27в348351 0.2 1011563
11:00+31вюв456261 0.0 10101229
14:00+31юв555816 0.1 10081392
17:00+30юв44631 0.0 1007980
20:00+28вюв358250 0.0 1008456
20 мая, чт
чт2023:00+27вюв248450 0.2 1009347
02:00+27ююв148878 0.7 1007246
05:00+26зюз229132 0.1 1007100
08:00+28юз2473100 0.2 1008579
11:00+33ююз4548100 0.0 10081491
14:00+34ю774650 0.0 10061523
17:00+31ююз7855100 0.0 1005820
20:00+28ююз4871100 0.0 1007503
21 мая, пт
пт2123:00+28ююз3676100 0.0 1008466
02:00+27юз2680100 0.0 1007453
05:00+27юз1382100 0.0 1006241
08:00+28юз2580100 0.1 1007445
11:00+30юз4667100 0.1 1007997
14:00+33ю685123 0.3 10041208
17:00+33ююз89545 0.0 1004921
20:00+29ююз5107313 0.0 1006548